Location: Zapote
(9.9191°N, 84.0597°W)
Time: 06:04:10
(UTC-06:00)

X-37B - Visible Passes

Search period start: 29 September 2020 00:00
Search period end: 09 October 2020 00:00
Orbit: 386 x 387 km, 45.0° (Epoch: 18 September)

Date Brightness Start Highest point End Pass type
(mag) Time Alt. Az. Time Alt. Az. Time Alt. Az.
29 Sep 0.8 04:10:56 53° N 04:11:29 68° NE 04:14:38 10° SE visible
30 Sep 2.6 04:48:27 12° WSW 04:49:22 13° SW 04:51:01 10° SSW visible
30 Sep 3.6 17:59:15 10° WNW 18:00:38 12° NW 18:02:01 10° NNW visible
01 Oct 3.4 03:53:33 12° SSE 03:53:33 12° SSE 03:53:49 10° SSE visible
